DW3383 Weather Reports


time (UTC)temp
C
wind
direction
speed
KPH
gust
KPH
rain 1hr
cm
rain 24hr
cm
rain mn
cm
humidity
%
barometer
mb
20260504150306 3 282 4.8 11.3 0.00 0.00 0.00 84 1018.4
20260504140805 -1 288 3.2 4.8 0.00 0.00 0.00 96 1018.6
20260504140306 -1 285 3.2 8.0 0.00 0.00 0.00 95 1018.5
20260504130806 0 274 3.2 8.0 0.00 0.00 0.00 92 1018.4
20260504130306 0 288 3.2 9.7 0.00 0.00 0.00 91 1018.4
20260504120307 1 81 3.2 9.7 0.00 0.00 0.00 87 1018.6
20260504110306 3 284 6.4 9.7 0.00 0.00 0.00 85 1018.4
20260504100306 3 284 3.2 9.7 0.00 0.00 0.00 84 1018.5
20260504080805 0 291 4.8 8.0 0.00 0.00 0.00 92 1018.6
20260504070308 2 218 1.6 8.0 0.00 0.00 0.00 87 1018.5
20260504050305 7 267 4.8 9.7 0.00 0.00 0.00 73 1017.9
20260504040805 10 279 9.7 9.7 0.00 0.00 0.00 64 1017.6
20260504040306 10 278 9.7 9.7 0.00 0.00 0.00 65 1017.6
20260504030805 11 279 4.8 8.0 0.00 0.00 0.00 61 1017.5
20260504030305 11 268 3.2 8.0 0.00 0.00 0.00 60 1017.5
20260504020805 11 154 1.6 4.8 0.00 0.00 0.00 61 1017.4
20260504020305 11 112 1.6 4.8 0.00 0.00 0.00 60 1017.4
20260504010306 11 343 0.0 4.8 0.00 0.00 0.00 60 1017.5
20260504000308 11 271 3.2 4.8 0.00 0.00 0.00 60 1017.7
20260503230308 11 318 1.6 8.0 0.00 0.00 0.00 62 1018.0
20260503220806 10 21 3.2 8.0 0.00 0.00 0.00 61 1018.1
20260503220305 11 3 3.2 11.3 0.00 0.00 0.00 61 1018.1
20260503210805 10 318 3.2 8.0 0.00 0.00 0.00 62 1018.5
20260503210305 10 23 4.8 14.5 0.00 0.00 0.00 62 1018.5
20260503200305 9 345 4.8 11.3 0.00 0.00 0.00 65 1018.8
20260503190806 8 259 8.0 9.7 0.00 0.00 0.00 65 1019.0
20260503190308 8 268 4.8 9.7 0.00 0.00 0.00 63 1019.1
20260503180805 7 275 3.2 8.0 0.00 0.00 0.00 67 1019.2
20260503180306 6 308 3.2 11.3 0.00 0.00 0.00 67 1019.3
20260503170804 6 281 4.8 11.3 0.00 0.00 0.00 73 1019.3
20260503170305 6 285 6.4 14.5 0.00 0.00 0.00 73 1019.3